Regional Weather Roundup
Issued by NWS

Home | Current Version | Previous Version | Text Only | Print | Product List | Glossary Off
Versions: 1 2 3 4 5 6 7 8 9 10 11 12 13 14 15 16 17 18 19 20 21 22 23 24 25 26 27 28 29 30 31 32 33 34 35 36 37 38 39 40 41 42 43 44 45 46 47 48 49 50

000
ASUS43 KLMK 271402
RWRKY
KENTUCKY REGIONAL WEATHER ROUNDUP
NATIONAL WEATHER SERVICE LOUISVILLE KY
900 AM EST THU NOV 27 2014

NOTE "FAIR" INDICATES FEW OR NO CLOUDS BELOW 12,000 FEET
WITH NO SIGNIFICANT WEATHER AND/OR OBSTRUCTIONS TO VISIBILITY.

KYZ001>023-026-027-061>063-070>075-271500-
WESTERN AND SOUTH CENTRAL KENTUCKY

CITY           SKY/WX    TMP DP  RH WIND       PRES   REMARKS
PADUCAH        CLOUDY    32  26  78 N10       30.41R WCI  24
HENDERSON      CLOUDY    28  21  74 NW15G21   30.39R WCI  17
OWENSBORO      CLOUDY    30  25  82 N16       30.38R WCI  19
HOPKINSVILLE   PTSUNNY   34  33  95 NW8       30.37R WCI  27
BOWLING GREEN  CLOUDY    35  29  78 NW10      30.34R WCI  27
GLASGOW        NOT AVBL
$$

KYZ024-025-028>034-038-045-046-053-271500-
NORTH CENTRAL KENTUCKY

CITY           SKY/WX    TMP DP  RH WIND       PRES   REMARKS
LOUISVILLE/SDF CLOUDY    31  25  78 N13       30.29R WCI  21
LOUISVILLE/LOU CLOUDY    31  24  75 NW10G18   30.30R WCI  22
FORT KNOX      CLOUDY    30  27  86 W6        30.28R WCI  24
$$

KYZ035>037-039>044-047>052-055>060-089>105-271500-
NORTHEAST KENTUCKY

CITY           SKY/WX    TMP DP  RH WIND       PRES   REMARKS
LEXINGTON      CLOUDY    29  25  85 NW10      30.24R WCI  20
COVINGTON      CLOUDY    30  20  66 NW10G20   30.23R WCI  21
FRANKFORT      CLOUDY    30  23  75 NW6       30.25R WCI  24
$$

KYZ054-064>069-076>088-106>120-271500-
SOUTHEAST KENTUCKY

CITY           SKY/WX    TMP DP  RH WIND       PRES   REMARKS
JACKSON        CLOUDY    32  29  88 VRB6      30.17R FOG     WCI  26
LONDON         CLOUDY    34  29  82 NW10      30.21R WCI  26
SOMERSET       NOT AVBL
MIDDLESBORO    NOT AVBL
MONTICELLO     CLOUDY    35  32  89 NW12      30.27R WCI  27
$$



USA.gov is the U.S. government's official web portal to all federal, state and local government web resources and services.